MUOS-3

Last updated on Wed Sep 09 2026 00:03:00 GMT+0000 (Coordinated Universal Time)

1 40374U 15002A 26251.29939253 -.00000146 00000+0 00000+0 0 9994 2 40374 4.6790 43.7611 0057401 177.9454 217.9095 1.00275705 42424
UTC large
Height (km)
Speed (km/s)
/
Latitude / Longitude
Inclination (degrees)
Orbital Period (minutes)
Azimuth
Elevation
Range (km)
Doppler Factor

Next 0 passes for location: London (51.5072 / 0.1276)

No passes found over London.
MUOS-3